Hourly Weather Roundup
Issued by NWS Central Illinois

Home | Current Version | Previous Version | Text Only | Print | Product List | Glossary On
Versions: 1 2 3 4 5 6 7 8 9 10 11 12 13 14 15 16 17 18 19 20 21 22 23 24 25 26 27 28 29 30 31 32 33 34 35 36 37 38 39 40 41 42 43 44 45 46 47 48 49 50
000
NZUS43 KILX 010010
HWRILX

AREA WEATHER ROUNDUP
NATIONAL WEATHER SERVICE, LINCOLN IL
700 PM CDT MON AUG 31 2015


CITY           SKY/WX    TMP DP  RH WIND       PRES   REMARKS
BLOOMINGTON    PTCLDY    82  73  74 S9        30.04S HX  87
6HR MIN TEMP:  82; 6HR MAX TEMP:  89;

CHAMPAIGN      CLEAR     81  70  69 S6        30.04S HX  84
6HR MIN TEMP:  81; 6HR MAX TEMP:  87;

DANVILLE       CLEAR     78  71  78 S5        30.01F HAZE    HX  80
6HR MIN TEMP:  78; 6HR MAX TEMP:  86;

DECATUR        CLEAR     83  69  62 S9        30.03S HX  86
6HR MIN TEMP:  83; 6HR MAX TEMP:  88;

EFFINGHAM      CLEAR     81  69  65 SE3       30.05F HX  84
FLORA          CLEAR     82  67  61 S5        30.04F HX  84
6HR MIN TEMP:  79; 6HR MAX TEMP:  87;

GALESBURG      CLEAR     82  73  73 SE3       29.99S HX  87
JACKSONVILLE   CLEAR     86  72  62 S5        29.99F HX  92
6HR MIN TEMP:  86; 6HR MAX TEMP:  92;

LACON          CLEAR     82  72  72 CALM      29.99S HX  87
6HR MIN TEMP:  82; 6HR MAX TEMP:  88;

LAWRENCEVILLE  CLEAR     81  69  67 S6        30.05S HX  84
6HR MIN TEMP:  81; 6HR MAX TEMP:  88;

LITCHFIELD     CLEAR     81  72  73 SE5       30.02F HX  85
$$


CITY           SKY/WX    TMP DP  RH WIND       PRES   REMARKS
LINCOLN        PTCLDY    83  70  63 S6        30.00S HX  87
6HR MIN TEMP:  83; 6HR MAX TEMP:  91;

MACOMB         CLEAR     84  71  63 CALM      30.00F HX  89
MATTOON        CLEAR     80  68  66 S3        30.04S HX  83
6HR MIN TEMP:  79; 6HR MAX TEMP:  85;

MT CARMEL AP   CLEAR     81  68  65 S3        30.05S HX  83
OLNEY-NOBLE AP CLEAR     79  70  73 SE3       30.05S HX  81
PARIS          CLEAR     80  71  73 SW3       30.05S HX  84
6HR MIN TEMP:  80; 6HR MAX TEMP:  87;

PEORIA         PTCLDY    85  68  56 S5        30.00S HX  88
6HR MIN TEMP:  85; 6HR MAX TEMP:  91;

PONTIAC        CLEAR     83  73  71 S5        30.02S HAZE    HX  88
RANTOUL        PTCLDY    83  73  71 SW3       30.03S HX  88
ROBINSON       CLEAR     81  69  67 S5        30.06S HX  83
6HR MIN TEMP:  81; 6HR MAX TEMP:  88;

SPRINGFIELD    PTCLDY    84  70  62 S8        30.01R HX  88
6HR MIN TEMP:  84; 6HR MAX TEMP:  92;

TAYLORVILLE    CLEAR     81  72  74 S5        30.02F HX  84
$$

...REGIONAL REPORTS...


CITY           SKY/WX    TMP DP  RH WIND       PRES   REMARKS
CHICAGO O`HARE PTCLDY    82  68  62 CALM      30.01S HX  85
KANKAKEE       CLEAR     81  71  73 CALM      30.03S HX  84
MOLINE         CLEAR     84  73  69 SE3       29.97F HX  90
MOUNT STERLING CLEAR     82  73  72 S3        29.99S HX  88
MOUNT VERNON   CLEAR     82  70  65 S5        30.05S HX  86
PITTSFIELD     CLEAR     85  72  63 S7        30.00F HX  91
QUINCY         CLEAR     85  70  60 SE6       29.97F HX  89
ROCKFORD       CLEAR     81  70  69 S3        30.02S HX  84
$$


CITY           SKY/WX    TMP DP  RH WIND       PRES   REMARKS
BURLINGTON     CLEAR     84  73  69 SE6       29.97S HX  90
CEDAR RAPIDS   CLEAR     81  75  82 SE6       29.96S HX  87
DES MOINES     PTCLDY    84  72  67 S6        29.92F HX  89
KIRKSVILLE     CLEAR     83  72  69 S5        29.98R HX  88
OTTUMWA        CLEAR     82  74  76 S5        29.93F HX  88
ST LOUIS       MOCLDY    84  71  65 SE9       30.02S HX  89
$$


CITY           SKY/WX    TMP DP  RH WIND       PRES   REMARKS
TERRE HAUTE    PTCLDY    82  67  60 S6        30.05S HX  84
EVANSVILLE     PTCLDY    83  67  58 MISG      30.06S HX  85
INDIANAPOLIS   PTCLDY    80  67  64 S9        30.06R HX  82
LAFAYETTE      CLEAR     82  68  62 SW3       30.03S HX  85
MADISON        CLEAR     79  68  69 S3        30.00S HX  81
MILWAUKEE      MOCLDY    72  65  78 SE3       30.01S
$$




USA.gov is the U.S. government's official web portal to all federal, state and local government web resources and services.